| time (UTC) | temp F | wind direction | speed knots | gust knots | rain 1hr in | rain 24hr in | rain mn in | humidity % | barometer mb |
| 20260504190803 | 72 | 174 | 0.0 | 5.2 | 0.00 | 0.00 | 0.00 | 49 | 1009.4 |
| 20260504190303 | 72 | 246 | 0.0 | 4.3 | 0.00 | 0.00 | 0.00 | 51 | 1009.5 |
| 20260504185803 | 72 | 212 | 2.6 | 8.7 | 0.00 | 0.00 | 0.00 | 48 | 1009.5 |
| 20260504185304 | 72 | 311 | 0.9 | 5.2 | 0.00 | 0.00 | 0.00 | 49 | 1009.4 |
| 20260504184803 | 72 | 241 | 2.6 | 13.9 | 0.00 | 0.00 | 0.00 | 48 | 1009.6 |
| 20260504184303 | 72 | 232 | 0.9 | 10.4 | 0.00 | 0.00 | 0.00 | 49 | 1009.7 |
| 20260504183803 | 72 | 240 | 0.0 | 2.6 | 0.00 | 0.00 | 0.00 | 51 | 1009.8 |
| 20260504183303 | 71 | 243 | 2.6 | 10.4 | 0.00 | 0.00 | 0.00 | 49 | 1009.8 |
| 20260504182803 | 71 | 251 | 1.7 | 8.7 | 0.00 | 0.00 | 0.00 | 48 | 1009.9 |
| 20260504182304 | 71 | 197 | 0.9 | 8.7 | 0.00 | 0.00 | 0.00 | 54 | 1009.9 |
| 20260504181304 | 70 | 246 | 0.9 | 8.7 | 0.00 | 0.00 | 0.00 | 52 | 1010.2 |
| 20260504180302 | 71 | 226 | 4.3 | 10.4 | 0.00 | 0.00 | 0.00 | 49 | 1010.3 |
| 20260504175802 | 70 | 202 | 3.5 | 10.4 | 0.00 | 0.00 | 0.00 | 50 | 1010.4 |
| 20260504175304 | 70 | 262 | 0.0 | 6.1 | 0.00 | 0.00 | 0.00 | 53 | 1010.3 |
| 20260504174803 | 70 | 251 | 0.9 | 4.3 | 0.00 | 0.00 | 0.00 | 50 | 1010.3 |
| 20260504174302 | 71 | 222 | 1.7 | 8.7 | 0.00 | 0.00 | 0.00 | 50 | 1010.4 |
| 20260504173803 | 70 | 223 | 2.6 | 7.0 | 0.00 | 0.00 | 0.00 | 50 | 1010.5 |
| 20260504173303 | 70 | 235 | 1.7 | 8.7 | 0.00 | 0.00 | 0.00 | 48 | 1010.5 |
| 20260504172803 | 70 | 238 | 2.6 | 10.4 | 0.00 | 0.00 | 0.00 | 51 | 1010.7 |
| 20260504172304 | 70 | 286 | 0.9 | 4.3 | 0.00 | 0.00 | 0.00 | 52 | 1010.7 |
| 20260504171803 | 69 | 186 | 0.9 | 6.1 | 0.00 | 0.00 | 0.00 | 53 | 1010.7 |
| 20260504171303 | 69 | 236 | 0.9 | 8.7 | 0.00 | 0.00 | 0.00 | 52 | 1010.7 |
| 20260504170303 | 69 | 217 | 2.6 | 6.1 | 0.00 | 0.00 | 0.00 | 50 | 1010.9 |
| 20260504160302 | 67 | 229 | 0.9 | 7.0 | 0.00 | 0.00 | 0.00 | 52 | 1012.0 |
| 20260504150803 | 64 | 227 | 2.6 | 15.6 | 0.00 | 0.00 | 0.00 | 51 | 1012.7 |
| 20260504150304 | 65 | 223 | 1.7 | 15.6 | 0.00 | 0.00 | 0.00 | 52 | 1012.7 |
| 20260504141304 | 62 | 330 | 0.0 | 7.0 | 0.00 | 0.00 | 0.00 | 53 | 1012.7 |
| 20260504140803 | 62 | 319 | 0.9 | 2.6 | 0.00 | 0.00 | 0.00 | 55 | 1012.6 |
| 20260504140303 | 61 | 341 | 0.0 | 4.3 | 0.00 | 0.00 | 0.00 | 57 | 1012.8 |
| 20260504130804 | 53 | 231 | 0.0 | 0.0 | 0.00 | 0.00 | 0.00 | 66 | 1013.2 |
| 20260504130303 | 53 | 231 | 0.0 | 0.9 | 0.00 | 0.00 | 0.00 | 68 | 1013.3 |
| 20260504120303 | 48 | 30 | 0.9 | 2.6 | 0.00 | 0.00 | 0.00 | 82 | 1013.5 |
| 20260504110303 | 42 | 282 | 0.0 | 0.0 | 0.00 | 0.00 | 0.00 | 87 | 1013.4 |
| 20260504081802 | 41 | 282 | 0.0 | 0.0 | 0.00 | 0.00 | 0.00 | 79 | 1013.7 |
| 20260504080803 | 41 | 282 | 0.0 | 0.0 | 0.00 | 0.00 | 0.00 | 78 | 1013.7 |
| 20260504070303 | 43 | 282 | 0.0 | 0.0 | 0.00 | 0.00 | 0.00 | 74 | 1013.5 |
| 20260504050304 | 45 | 282 | 0.0 | 0.0 | 0.00 | 0.00 | 0.00 | 70 | 1013.7 |
| 20260504045804 | 45 | 282 | 0.0 | 0.0 | 0.00 | 0.00 | 0.00 | 70 | 1013.8 |
| 20260504045304 | 46 | 282 | 0.0 | 0.0 | 0.00 | 0.00 | 0.00 | 70 | 1013.8 |
| 20260504044802 | 46 | 282 | 0.0 | 0.0 | 0.00 | 0.00 | 0.00 | 68 | 1013.7 |
| 20260504044304 | 46 | 282 | 0.0 | 0.0 | 0.00 | 0.00 | 0.00 | 68 | 1013.7 |
| 20260504043802 | 46 | 282 | 0.0 | 0.0 | 0.00 | 0.00 | 0.00 | 68 | 1013.8 |
| 20260504043303 | 46 | 282 | 0.0 | 0.0 | 0.00 | 0.00 | 0.00 | 68 | 1013.7 |
| 20260504042803 | 46 | 282 | 0.0 | 0.0 | 0.00 | 0.00 | 0.00 | 69 | 1013.7 |
| 20260504042304 | 46 | 282 | 0.0 | 0.0 | 0.00 | 0.00 | 0.00 | 69 | 1013.7 |
| 20260504041803 | 46 | 282 | 0.0 | 0.0 | 0.00 | 0.00 | 0.00 | 68 | 1013.7 |
| 20260504041303 | 46 | 282 | 0.0 | 0.0 | 0.00 | 0.00 | 0.00 | 68 | 1013.7 |
| 20260504040303 | 46 | 282 | 0.0 | 0.0 | 0.00 | 0.00 | 0.00 | 68 | 1013.6 |
| 20260504035803 | 46 | 282 | 0.0 | 0.0 | 0.00 | 0.00 | 0.00 | 68 | 1013.5 |
| 20260504035304 | 46 | 282 | 0.0 | 0.0 | 0.00 | 0.00 | 0.00 | 69 | 1013.4 |
| 20260504034803 | 46 | 282 | 0.0 | 0.0 | 0.00 | 0.00 | 0.00 | 68 | 1013.3 |
| 20260504033804 | 46 | 282 | 0.0 | 0.0 | 0.00 | 0.00 | 0.00 | 67 | 1013.2 |
| 20260504032803 | 47 | 282 | 0.0 | 0.0 | 0.00 | 0.00 | 0.00 | 66 | 1013.1 |
| 20260504032304 | 47 | 282 | 0.0 | 0.0 | 0.00 | 0.00 | 0.00 | 66 | 1013.1 |
| 20260504031303 | 47 | 282 | 0.0 | 0.0 | 0.00 | 0.00 | 0.00 | 65 | 1013.0 |
| 20260504030803 | 47 | 282 | 0.0 | 0.0 | 0.00 | 0.00 | 0.00 | 65 | 1013.0 |
| 20260504030303 | 47 | 282 | 0.0 | 0.0 | 0.00 | 0.00 | 0.00 | 64 | 1013.0 |
| 20260504025803 | 48 | 282 | 0.0 | 0.0 | 0.00 | 0.00 | 0.00 | 64 | 1013.0 |
| 20260504025304 | 48 | 282 | 0.0 | 0.0 | 0.00 | 0.00 | 0.00 | 64 | 1013.0 |
| 20260504024303 | 48 | 282 | 0.0 | 0.0 | 0.00 | 0.00 | 0.00 | 64 | 1013.1 |
| 20260504023803 | 48 | 282 | 0.0 | 0.0 | 0.00 | 0.00 | 0.00 | 63 | 1013.1 |
| 20260504022304 | 49 | 282 | 0.0 | 0.0 | 0.00 | 0.00 | 0.00 | 62 | 1013.1 |
| 20260504021803 | 49 | 282 | 0.0 | 0.0 | 0.00 | 0.00 | 0.00 | 63 | 1013.1 |
| 20260504021303 | 49 | 282 | 0.0 | 0.0 | 0.00 | 0.00 | 0.00 | 62 | 1013.2 |
| 20260504020303 | 49 | 282 | 0.0 | 0.0 | 0.00 | 0.00 | 0.00 | 62 | 1013.1 |
| 20260504015803 | 49 | 282 | 0.0 | 0.0 | 0.00 | 0.00 | 0.00 | 62 | 1013.1 |
| 20260504015304 | 49 | 282 | 0.0 | 0.0 | 0.00 | 0.00 | 0.00 | 62 | 1013.1 |
| 20260504014804 | 49 | 282 | 0.0 | 0.0 | 0.00 | 0.00 | 0.00 | 61 | 1013.0 |
| 20260504014303 | 49 | 282 | 0.0 | 0.0 | 0.00 | 0.00 | 0.00 | 61 | 1013.0 |
| 20260504013803 | 50 | 282 | 0.0 | 0.0 | 0.00 | 0.00 | 0.00 | 60 | 1013.0 |
| 20260504013303 | 50 | 282 | 0.0 | 0.0 | 0.00 | 0.00 | 0.00 | 60 | 1013.0 |
| 20260504012803 | 50 | 282 | 0.0 | 0.0 | 0.00 | 0.00 | 0.00 | 60 | 1013.0 |
| 20260504012304 | 50 | 282 | 0.0 | 0.0 | 0.00 | 0.00 | 0.00 | 59 | 1012.9 |
| 20260504011805 | 51 | 282 | 0.0 | 0.0 | 0.00 | 0.00 | 0.00 | 59 | 1012.9 |
| 20260504011304 | 51 | 282 | 0.0 | 0.0 | 0.00 | 0.00 | 0.00 | 58 | 1012.9 |
| 20260504010820 | 51 | 282 | 0.0 | 0.0 | 0.00 | 0.00 | 0.00 | 58 | 1012.9 |
| 20260504010303 | 51 | 282 | 0.0 | 0.0 | 0.00 | 0.00 | 0.00 | 58 | 1012.9 |
| 20260504005803 | 52 | 282 | 0.0 | 0.0 | 0.00 | 0.00 | 0.00 | 57 | 1012.9 |
| 20260504005304 | 52 | 282 | 0.0 | 0.0 | 0.00 | 0.00 | 0.00 | 57 | 1012.8 |
| 20260504004803 | 52 | 282 | 0.0 | 0.0 | 0.00 | 0.00 | 0.00 | 56 | 1012.8 |
| 20260504003303 | 54 | 282 | 0.0 | 0.0 | 0.00 | 0.00 | 0.00 | 54 | 1012.6 |
| 20260504002803 | 54 | 282 | 0.0 | 0.0 | 0.00 | 0.00 | 0.00 | 53 | 1012.5 |
| 20260504001803 | 55 | 282 | 0.0 | 0.0 | 0.00 | 0.00 | 0.00 | 52 | 1012.4 |
| 20260504001303 | 55 | 282 | 0.0 | 0.0 | 0.00 | 0.00 | 0.00 | 52 | 1012.4 |
| 20260504000803 | 55 | 282 | 0.0 | 0.0 | 0.00 | 0.00 | 0.00 | 51 | 1012.3 |
| 20260504000303 | 56 | 282 | 0.0 | 0.0 | 0.00 | 0.00 | 0.00 | 50 | 1012.2 |
| 20260503235304 | 56 | 340 | 0.0 | 4.3 | 0.00 | 0.00 | 0.00 | 51 | 1012.3 |
| 20260503234804 | 57 | 22 | 0.0 | 0.0 | 0.00 | 0.00 | 0.00 | 50 | 1012.2 |
| 20260503234303 | 57 | 22 | 0.0 | 0.0 | 0.00 | 0.00 | 0.00 | 50 | 1012.1 |
| 20260503233303 | 57 | 305 | 0.0 | 1.7 | 0.00 | 0.00 | 0.00 | 49 | 1012.0 |
| 20260503231803 | 58 | 306 | 0.0 | 0.0 | 0.00 | 0.00 | 0.00 | 49 | 1011.9 |
| 20260503230803 | 58 | 308 | 1.7 | 7.8 | 0.00 | 0.00 | 0.00 | 48 | 1011.9 |
| 20260503230303 | 58 | 312 | 0.0 | 2.6 | 0.00 | 0.00 | 0.00 | 48 | 1011.9 |
| 20260503225802 | 58 | 312 | 0.0 | 6.1 | 0.00 | 0.00 | 0.00 | 48 | 1011.8 |
| 20260503225305 | 59 | 292 | 0.9 | 2.6 | 0.00 | 0.00 | 0.00 | 48 | 1011.8 |
| 20260503224803 | 59 | 238 | 1.7 | 7.0 | 0.00 | 0.00 | 0.00 | 46 | 1011.7 |
| 20260503224303 | 59 | 232 | 1.7 | 7.8 | 0.00 | 0.00 | 0.00 | 47 | 1011.8 |
| 20260503223303 | 59 | 240 | 0.0 | 6.1 | 0.00 | 0.00 | 0.00 | 48 | 1011.8 |
| 20260503222304 | 59 | 281 | 0.0 | 4.3 | 0.00 | 0.00 | 0.00 | 47 | 1011.8 |
| 20260503221803 | 59 | 294 | 1.7 | 10.4 | 0.00 | 0.00 | 0.00 | 47 | 1011.8 |
| 20260503221304 | 59 | 300 | 0.9 | 5.2 | 0.00 | 0.00 | 0.00 | 47 | 1011.9 |
| 20260503220803 | 59 | 316 | 1.7 | 7.0 | 0.00 | 0.00 | 0.00 | 47 | 1012.0 |
| 20260503220303 | 60 | 320 | 0.9 | 6.1 | 0.00 | 0.00 | 0.00 | 47 | 1012.0 |
| 20260503215804 | 60 | 306 | 0.9 | 7.0 | 0.00 | 0.00 | 0.00 | 46 | 1012.0 |
| 20260503215304 | 60 | 334 | 1.7 | 6.1 | 0.00 | 0.00 | 0.00 | 45 | 1011.9 |
| 20260503214803 | 60 | 313 | 1.7 | 5.2 | 0.00 | 0.00 | 0.00 | 46 | 1011.9 |
| 20260503213803 | 60 | 287 | 0.9 | 12.2 | 0.00 | 0.00 | 0.00 | 47 | 1011.6 |
| 20260503213303 | 60 | 289 | 1.7 | 11.3 | 0.00 | 0.00 | 0.00 | 47 | 1011.6 |
| 20260503212803 | 60 | 300 | 1.7 | 8.7 | 0.00 | 0.00 | 0.00 | 47 | 1011.5 |
| 20260503211803 | 60 | 270 | 0.9 | 7.8 | 0.00 | 0.00 | 0.00 | 47 | 1011.4 |
| 20260503210803 | 60 | 297 | 2.6 | 8.7 | 0.00 | 0.00 | 0.00 | 46 | 1011.5 |
| 20260503210303 | 60 | 309 | 0.9 | 10.4 | 0.00 | 0.00 | 0.00 | 48 | 1011.5 |
| 20260503205803 | 60 | 196 | 0.0 | 5.2 | 0.00 | 0.00 | 0.00 | 47 | 1011.5 |
| 20260503205304 | 60 | 285 | 0.9 | 10.4 | 0.00 | 0.00 | 0.00 | 48 | 1011.2 |
| 20260503204803 | 60 | 312 | 1.7 | 7.0 | 0.00 | 0.00 | 0.00 | 46 | 1011.5 |
| 20260503204303 | 59 | 291 | 1.7 | 7.8 | 0.00 | 0.00 | 0.00 | 47 | 1011.6 |
| 20260503203803 | 59 | 13 | 0.9 | 7.0 | 0.00 | 0.00 | 0.00 | 48 | 1011.5 |
| 20260503203303 | 59 | 263 | 0.9 | 6.1 | 0.00 | 0.00 | 0.00 | 47 | 1011.6 |
| 20260503202803 | 58 | 269 | 1.7 | 7.0 | 0.00 | 0.00 | 0.00 | 49 | 1011.7 |
| 20260503202304 | 58 | 340 | 1.7 | 8.7 | 0.00 | 0.00 | 0.00 | 48 | 1011.7 |
| 20260503201803 | 58 | 319 | 1.7 | 8.7 | 0.00 | 0.00 | 0.00 | 46 | 1011.7 |
| 20260503201304 | 58 | 293 | 1.7 | 6.1 | 0.00 | 0.00 | 0.00 | 47 | 1012.0 |
| 20260503200304 | 59 | 287 | 2.6 | 7.0 | 0.00 | 0.00 | 0.00 | 46 | 1012.1 |
| 20260503195803 | 59 | 319 | 1.7 | 7.0 | 0.00 | 0.00 | 0.00 | 47 | 1012.0 |
| 20260503195304 | 58 | 244 | 2.6 | 8.7 | 0.00 | 0.00 | 0.00 | 48 | 1012.0 |
| 20260503194803 | 57 | 317 | 1.7 | 7.8 | 0.00 | 0.00 | 0.00 | 47 | 1012.1 |
| 20260503194303 | 57 | 310 | 3.5 | 13.9 | 0.00 | 0.00 | 0.00 | 48 | 1012.3 |
| 20260503193803 | 58 | 288 | 2.6 | 8.7 | 0.00 | 0.00 | 0.00 | 46 | 1012.2 |
| 20260503193303 | 57 | 269 | 0.9 | 13.9 | 0.00 | 0.00 | 0.00 | 48 | 1012.3 |
| 20260503192803 | 57 | 293 | 1.7 | 6.1 | 0.00 | 0.00 | 0.00 | 49 | 1012.2 |
| 20260503192305 | 57 | 329 | 5.2 | 10.4 | 0.00 | 0.00 | 0.00 | 47 | 1012.3 |
| 20260503191803 | 56 | 353 | 1.7 | 7.0 | 0.00 | 0.00 | 0.00 | 47 | 1012.4 |
| 20260503191304 | 56 | 314 | 3.5 | 8.7 | 0.00 | 0.00 | 0.00 | 47 | 1012.7 |